{"data":{"norad_id":54666,"intl_designator":"2022-166AA","name":"ONEWEB-0602","alt_names":[],"object_type":"PAYLOAD","status":"ACTIVE","operator":null,"country":"UK","launch_date":"2022-12-08","launch_site_code":"AFETR","launch_vehicle":null,"mission":null,"orbit_class":"UNKNOWN","rcs_meters":null,"size_class":null,"mass_kg":null,"dimensions":null,"purposes":["comms"],"wikipedia_slug":null,"has_3d_model":false,"image_url":null,"decayed_at":null,"tle_current":{"epoch":"2026-09-20T03:35:20.999040Z","epoch_age_seconds":56075,"freshness":"FRESH","line1":"1 54666U 22166AA  26263.14954860  .00000083  00000+0  16995-3 0  9993","line2":"2 54666  87.9277 225.0957 0002232  75.7619 284.3763 13.21823737184095","mean_motion":13.21823737,"eccentricity":0.0002232,"inclination_deg":87.9277,"raan_deg":225.0957,"arg_perigee_deg":75.7619,"mean_anomaly_deg":284.3763,"bstar":0.00016995,"rev_number":18409,"period_min":108.94039497794,"perigee_km":1176.0755156438,"apogee_km":1179.4484689539,"semimajor_km":7555.8989922989,"source":"CELESTRAK","updated_at":"2026-09-20T09:00:44.746131Z"}}}